[[{"header":{"parameterUnit":"m.s-1","parameterCategory":1,"la1":30.2991,"la2":30.254,"lo1":-89.0895,"lo2":-89.0444,"dy":0.0017,"dx":0.0017,"nx":28,"ny":28,"refTime":"2026-02-25T03:00:00:Z","depth":0,"parameterNumber":2,"parameterNumberName":"U-component_of_WINDS"},"data":[0,0,0,0,0,0,0,0,0,0,0,0,0,0,0,0,0,0,0,0,0,0,0,0,0,0,0,0,0,0,0,0,0,0,0,0,0,0,0,0,0,0,0,0,0,0,0,0,0,0,0,0,0,0,0,0,0,0,2.3703,2.3704,0,2.3796,2.3797,2.3798,2.3769,2.3767,2.3765,2.3763,2.3863,2.3867,2.3872,0,0,0,0,0,0,0,0,0,0,0,0,0,2.3505,2.3508,2.3703,2.3704,2.3705,2.3796,2.3797,2.3798,2.3769,2.3767,2.3765,2.3762,2.3862,2.3867,2.3872,0,0,0,0,0,0,0,0,0,0,0,0,0,2.3594,2.351,2.3703,2.3702,2.3703,2.3795,2.3797,2.3798,2.377,2.3767,2.3764,2.3761,2.386,2.3866,2.3873,2.3974,0,0,2.3894,2.3897,0,0,0,0,0,0,0,0,2.3589,2.3601,2.3701,2.3702,2.3703,2.3768,2.3763,2.3857,2.3771,2.3745,2.3763,2.376,2.3834,2.3843,2.3867,2.3979,2.3983,2.3894,2.3898,2.3901,2.3903,0,0,0,0,0,0,0,2.3582,2.3597,2.374,2.3702,2.3704,2.3698,2.3707,2.3781,2.3805,2.3747,2.3745,2.3756,2.3834,2.386,2.3869,2.3984,2.3894,2.39,2.3904,2.3907,2.4183,2.4187,0,0,0,0,0,0,2.3575,2.3592,2.3737,2.3743,2.3637,2.3704,2.3714,2.375,2.3804,2.3809,2.3758,2.3754,2.385,2.3861,2.3872,2.3994,2.3901,2.3907,2.3911,2.418,2.4184,2.4188,0,0,0,0,0,0,2.3571,2.3588,2.3733,2.3667,2.3685,2.371,2.3751,2.3753,2.3779,2.3813,2.3817,2.378,2.3848,2.3863,2.3948,2.3997,2.3911,2.3917,2.4176,2.4181,2.4186,2.4238,0,0,0,0,0,0,2.3565,2.3587,2.3625,2.3668,2.3688,2.3807,2.3754,2.3757,2.3791,2.3786,2.3835,2.384,2.3847,2.3939,2.3955,2.4005,2.3922,2.4172,2.4179,2.4184,2.4232,2.4244,2.4255,0,0,0,0,0,2.3558,2.3637,2.3627,2.3644,2.3736,2.3809,2.3821,2.3827,2.3795,2.3833,2.3855,2.3838,2.3989,2.3948,2.3966,2.4018,2.4169,2.4177,2.4184,2.4227,2.4242,2.4254,0,0,0,0,0,0,2.36,2.3642,2.3632,2.3726,2.3764,2.3804,2.3853,2.3842,2.3892,2.3885,2.3891,2.3903,2.399,2.4013,2.3966,2.4119,2.4074,2.4086,2.4101,2.4115,2.4126,2.4119,2.3928,0,0,0,0,0,2.362,2.3675,2.3709,2.3789,2.3809,2.3828,2.386,2.3861,2.3901,2.3918,2.3945,2.3987,2.4043,2.408,2.4134,2.4235,2.4246,2.428,2.4291,2.43,2.4311,2.4366,2.4382,2.4212,2.4212,2.4212,0,0,2.3663,2.3692,2.3727,2.3799,2.3828,2.3886,2.3842,2.3905,2.3949,2.3928,2.401,2.4032,2.4078,2.4172,2.4215,2.4193,2.4359,2.431,2.4317,2.4322,2.4375,2.4391,2.4405,2.4217,2.4216,2.4216,0,0,2.3769,2.3797,2.3867,2.3897,2.3942,2.3954,2.397,2.4012,2.4025,2.4108,2.4093,2.4146,2.4243,2.4276,2.4306,2.4425,2.4412,2.4442,2.4501,2.4555,2.4568,2.458,2.4623,2.4638,2.4452,2.4452,2.4452,0,2.3817,2.3902,2.3904,2.3969,2.4001,2.3983,2.4054,2.4084,2.4145,2.4168,2.4143,2.4264,2.4294,2.4395,2.4424,2.4448,2.4469,2.4437,2.4566,2.4578,2.4589,2.463,2.4646,2.4455,2.4455,2.4455,2.4454,0,2.3959,2.4018,2.4069,2.4127,2.4165,2.4232,2.4246,2.4284,2.4281,2.4296,2.438,2.4415,2.4476,2.45,2.4498,2.4601,2.4587,2.4564,2.4519,2.4608,2.4647,2.4663,2.446,2.4459,2.4458,2.4457,0,0,2.4096,2.4152,2.4171,2.4197,2.4245,2.4292,2.4359,2.4416,2.4449,2.4492,2.4549,2.4631,2.4609,2.4643,2.4645,2.4692,2.4785,2.4664,2.4665,2.4686,2.4901,2.4918,2.4936,2.4776,2.4779,2.4781,2.4897,0,2.4207,2.4323,2.4327,2.4434,2.4489,2.4472,2.4531,2.4567,2.4583,2.4633,2.4651,2.4709,2.4676,2.4696,2.4742,2.4764,2.4828,2.4755,2.483,2.4833,2.482,2.4957,2.4975,2.5083,2.4912,2.4915,2.4917,0,2.4353,2.4398,2.451,2.4549,2.4573,2.4625,2.4678,2.4726,2.4767,2.4775,2.4812,2.4807,2.4877,2.4829,2.4926,2.4876,2.4907,2.4922,2.4926,2.4934,2.4881,2.4969,2.5117,2.5134,2.494,2.4938,2.4937,0,2.4442,2.4531,2.4609,2.4632,2.468,2.4717,2.4739,2.4777,2.4811,2.4858,2.488,2.4935,2.4965,2.5008,2.5019,2.4983,2.5115,2.5069,2.5125,2.5125,2.5155,2.5153,2.5311,2.5173,2.5173,2.5173,2.5172,0,2.4566,2.4636,2.465,2.4699,2.4776,2.4779,2.4856,2.4876,2.491,2.4962,2.4951,2.5001,2.5011,2.5064,2.5073,2.5151,2.5165,2.5175,2.5176,2.5176,2.5175,2.5197,2.519,2.5177,2.5176,2.5175,2.5175,0,2.468,2.4692,2.4776,2.4814,2.4825,2.4881,2.4914,2.4961,2.4974,2.5041,2.5057,2.508,2.5141,2.5155,2.5228,2.5234,2.5328,2.5322,2.5313,2.5313,2.5369,2.5364,2.5548,2.5572,2.5418,2.5419,2.542,0,2.4758,2.4811,2.4854,2.4888,2.4911,2.4966,2.5,2.5006,2.5042,2.5093,2.5134,2.5193,2.5241,2.534,2.5364,2.542,2.5415,2.5476,2.5424,2.5422,2.5417,2.5414,2.542,2.5486,2.5488,2.5489,2.549,0,2.4897,2.4901,2.495,2.5002,2.5043,2.5084,2.5123,2.5152,2.5163,2.5205,2.5266,2.5303,2.5377,2.5437,2.5493,2.5516,2.5506,2.5506,2.5522,2.5523,2.5516,2.5521,2.5341,2.5502,2.5501,2.55,2.55,2.5499,2.4996,2.5042,2.508,2.5135,2.5165,2.5202,2.5247,2.5266,2.5317,2.5377,2.5377,2.5444,2.5484,2.5558,2.5585,2.5639,2.562,2.5644,2.565,2.5656,2.5661,2.5507,2.5649,2.5649,2.5648,2.5648,2.5648,0,2.5135,2.5158,2.5209,2.5263,2.5307,2.5291,2.5334,2.5372,2.5431,2.5468,2.5515,2.5586,2.5643,2.5671,2.5728,2.5766,2.5762,2.5781,2.5778,2.5784,2.5674,2.5654,2.5782,2.5782,2.5782,2.5782,2.5782,2.5782,2.5212,2.529,2.5297,2.5389,2.5412,2.5476,2.5502,2.5537,2.5566,2.5645,2.5692,2.5709,2.5743,2.5803,2.5855,2.5862,2.5884,2.5905,2.5909,2.5806,2.5792,2.5779,2.5761,2.5909,2.5909,2.6015,2.6016,2.6017]},{"header":{"parameterUnit":"m.s-1","parameterCategory":1,"la1":30.2991,"la2":30.254,"lo1":-89.0895,"lo2":-89.0444,"dy":0.0017,"dx":0.0017,"nx":28,"ny":28,"refTime":"2026-02-25T03:00:00:Z","depth":0,"parameterNumber":3,"parameterNumberName":"V-component_of_WINDS"},"data":[0,0,0,0,0,0,0,0,0,0,0,0,0,0,0,0,0,0,0,0,0,0,0,0,0,0,0,0,0,0,0,0,0,0,0,0,0,0,0,0,0,0,0,0,0,0,0,0,0,0,0,0,0,0,0,0,0,0,5.6573,5.6575,0,5.6826,5.6829,5.6832,5.6865,5.6863,5.686,5.6858,5.7113,5.7122,5.7131,0,0,0,0,0,0,0,0,0,0,0,0,0,5.6114,5.6122,5.6572,5.6576,5.6579,5.6825,5.6829,5.6832,5.6866,5.6863,5.686,5.6857,5.711,5.7121,5.7132,0,0,0,0,0,0,0,0,0,0,0,0,0,5.6334,5.6125,5.6572,5.6625,5.6633,5.6825,5.6829,5.6833,5.6866,5.6863,5.6859,5.6856,5.7107,5.712,5.7133,5.7288,0,0,5.7174,5.718,0,0,0,0,0,0,0,0,5.6322,5.6351,5.6614,5.6622,5.663,5.681,5.6761,5.6986,5.6867,5.6777,5.6858,5.6854,5.7015,5.7036,5.7091,5.73,5.7311,5.7176,5.7184,5.719,5.7193,0,0,0,0,0,0,0,5.6307,5.6341,5.6673,5.6618,5.6628,5.6635,5.6663,5.6803,5.6913,5.6785,5.6788,5.6818,5.7019,5.7078,5.7097,5.7315,5.7175,5.7187,5.7195,5.7201,5.7664,5.7668,0,0,0,0,0,0,5.6282,5.6328,5.6665,5.668,5.6464,5.6646,5.6677,5.6756,5.6912,5.6932,5.682,5.6818,5.7057,5.7081,5.7106,5.7299,5.7189,5.7202,5.721,5.766,5.7665,5.767,0,0,0,0,0,0,5.6272,5.6312,5.6654,5.6505,5.6549,5.6658,5.6747,5.6763,5.6822,5.6939,5.6958,5.6861,5.7055,5.7087,5.7243,5.7309,5.7208,5.722,5.7655,5.7662,5.7667,5.7686,0,0,0,0,0,0,5.6259,5.6308,5.6369,5.6506,5.6557,5.6788,5.6751,5.6771,5.6846,5.6846,5.6982,5.7001,5.7054,5.7223,5.7257,5.7325,5.7231,5.765,5.7658,5.7665,5.768,5.7692,5.7702,0,0,0,0,0,5.6242,5.6363,5.6372,5.6413,5.6636,5.6792,5.6821,5.6881,5.6851,5.6913,5.6988,5.6997,5.7295,5.7238,5.7277,5.7351,5.7646,5.7656,5.7665,5.7675,5.769,5.7702,0,0,0,0,0,0,5.623,5.6382,5.6394,5.6563,5.6664,5.6798,5.6878,5.6895,5.7006,5.7001,5.7069,5.71,5.7253,5.7317,5.7251,5.7509,5.7468,5.7485,5.7462,5.7477,5.7488,5.747,5.7242,0,0,0,0,0,5.6247,5.6362,5.6488,5.6625,5.6676,5.6768,5.6838,5.6876,5.6983,5.7026,5.7112,5.7215,5.7332,5.7408,5.7522,5.7688,5.7719,5.7758,5.7769,5.7778,5.7792,5.7886,5.7905,5.7701,5.7701,5.77,0,0,5.6283,5.638,5.6449,5.6625,5.6709,5.6826,5.6804,5.6928,5.7016,5.7045,5.7198,5.7264,5.7383,5.7546,5.7621,5.7604,5.7855,5.779,5.7796,5.7806,5.7898,5.7917,5.7934,5.7707,5.7706,5.7705,0,0,5.6409,5.6494,5.6618,5.6703,5.6829,5.689,5.6919,5.705,5.7096,5.7251,5.7275,5.7379,5.7579,5.7664,5.7732,5.789,5.7903,5.7925,5.7984,5.8074,5.8091,5.8105,5.8163,5.8182,5.7939,5.7939,5.7939,0,5.6438,5.6617,5.6679,5.6805,5.6881,5.6914,5.7039,5.7117,5.7274,5.7326,5.7304,5.7556,5.7639,5.7821,5.786,5.7914,5.795,5.7911,5.8083,5.8099,5.8113,5.8169,5.819,5.7941,5.7941,5.7941,5.794,0,5.6647,5.677,5.6855,5.7008,5.7094,5.7218,5.7298,5.7377,5.7407,5.7469,5.7626,5.7726,5.7862,5.7907,5.7936,5.8094,5.808,5.807,5.803,5.8134,5.8187,5.8209,5.7944,5.7943,5.7943,5.7942,0,0,5.6774,5.6959,5.699,5.706,5.7202,5.7298,5.7423,5.7557,5.7624,5.773,5.7837,5.8005,5.7998,5.8076,5.8114,5.8193,5.8313,5.8174,5.8178,5.8198,5.8494,5.8502,5.8526,5.8321,5.8326,5.8329,5.8484,0,5.6918,5.7144,5.7204,5.7396,5.7511,5.7543,5.7652,5.775,5.7811,5.7916,5.7982,5.8102,5.8081,5.8129,5.8208,5.8282,5.8374,5.8271,5.8421,5.8426,5.8393,5.8553,5.8562,5.8704,5.8505,5.8509,5.8512,0,5.7117,5.7229,5.7433,5.7561,5.7612,5.7709,5.7837,5.7937,5.8048,5.8087,5.8174,5.8206,5.8336,5.8288,5.8469,5.8397,5.8462,5.8507,5.8514,5.8532,5.8476,5.8577,5.8751,5.8773,5.8545,5.8542,5.854,0,5.7191,5.7393,5.7542,5.76,5.7753,5.782,5.7886,5.7995,5.8071,5.8182,5.8232,5.8356,5.8424,5.8518,5.8581,5.854,5.8757,5.8713,5.8792,5.8791,5.8838,5.8835,5.9026,5.8876,5.8876,5.8876,5.8875,0,5.7346,5.747,5.7577,5.7669,5.7808,5.7874,5.801,5.8077,5.8173,5.8277,5.831,5.8407,5.8484,5.8591,5.8641,5.8783,5.8813,5.8847,5.8859,5.8846,5.8842,5.889,5.8883,5.8881,5.888,5.8879,5.8878,0,5.7454,5.753,5.7695,5.7826,5.7861,5.7958,5.807,5.8159,5.8221,5.8352,5.8387,5.8483,5.861,5.8683,5.8842,5.8876,5.9034,5.9041,5.8998,5.9004,5.9079,5.9071,5.931,5.9345,5.917,5.9171,5.9173,0,5.7549,5.7646,5.7787,5.786,5.7928,5.8045,5.8124,5.8192,5.8273,5.8407,5.848,5.861,5.8718,5.8919,5.9002,5.9125,5.9135,5.921,5.9154,5.9137,5.9138,5.9133,5.9143,5.922,5.9222,5.9223,5.9224,0,5.7711,5.7744,5.7857,5.7985,5.8079,5.8181,5.8283,5.834,5.8425,5.8514,5.8646,5.8729,5.8893,5.9021,5.915,5.9216,5.9235,5.9241,5.9266,5.9254,5.9226,5.9244,5.9026,5.9236,5.9235,5.9234,5.9233,5.9233,5.7817,5.7904,5.8018,5.8143,5.8227,5.8322,5.8413,5.8486,5.8598,5.8738,5.877,5.8909,5.9017,5.9193,5.9263,5.9371,5.9357,5.9393,5.9403,5.9411,5.9414,5.9207,5.9394,5.9394,5.9394,5.9394,5.9393,0,5.7981,5.8056,5.8171,5.8313,5.8412,5.8421,5.8534,5.8616,5.8738,5.8838,5.8944,5.9095,5.922,5.9313,5.944,5.9509,5.952,5.954,5.9536,5.9551,5.9419,5.9385,5.9528,5.9528,5.9528,5.9528,5.9528,5.9528,5.8079,5.8228,5.8275,5.8465,5.8539,5.8677,5.8741,5.8828,5.8908,5.9077,5.9181,5.9241,5.9338,5.9473,5.9587,5.9611,5.9656,5.9675,5.97,5.9575,5.9561,5.9547,5.9516,5.9684,5.9684,5.9825,5.9826,5.9827]}]]